Tracking 19146 objects as of 24-Apr-2018
HD Live streaming from Space Station
objects crossing your sky now

OSCAR 36 (UOSAT 12)


10-day predictions
OSCAR 36 (UOSAT 12) is classified as:


NORAD ID: 25693
Int'l Code: 1999-021A
Launch date: April 21, 1999
Source: United Kingdom (UK)
Launch site: TYURATAM MISSILE AND SPACE COMPLEX (TTMTR)
Uplink (MHz): 145.960
Downlink (MHz): 437.400/437.025
Beacon (MHz): 437.400
Mode: 38400bps FSK
Call sign: UO121-11 -12
Status: Inactive


Used for email and communication services to remote areas.
aabbcc
Your satellite tracking list
Your tracking list is empty




NASA's NSSDC Master Catalog

Two Line Element Set (TLE):
1 25693U 99021A   18113.71930561 -.00000051 +00000-0 +12616-4 0  9999
2 25693 064.5557 248.5484 0049364 271.6738 087.8713 14.80793528025833
Source of the keplerian elements: AFSPC